Overview Statistics Trail Chart Weather Telemetry Raw packets
 

This is the latest recevied weather packets stored in our database for station/object KQ4WWD. If no packets are shown the sender has not sent any weather packets the latest 10 day(s).

<< 71 72 73 74 75 76 77 >>
Time Temp. Humidity Pressure Rain* Wind** Luminosity Snow
1788100578 30° C 81% 1018.8 hPa 0 mm - 807 W/m² -
1788100276 30° C 80% 1018.7 hPa 0 mm - 179 W/m² -
1788099972 30° C 80% 1018.8 hPa 0 mm - 750 W/m² -
1788099667 30° C 80% 1018.6 hPa 0 mm - 418 W/m² -
1788099362 30° C 81% 1018.5 hPa 0 mm - 609 W/m² -
1788099057 30° C 81% 1018.7 hPa 0 mm - 631 W/m² -
1788098757 28.89° C 83% 1018.7 hPa 0 mm - 638 W/m² -
1788098453 28.89° C 83% 1018.6 hPa 0 mm - 322 W/m² -
1788098147 28.89° C 82% 1018.7 hPa 0 mm - 225 W/m² -
1788097842 28.89° C 82% 1018.8 hPa 0 mm - 402 W/m² -
1788097539 28.89° C 83% 1018.7 hPa 0 mm - 409 W/m² -
1788097234 28.89° C 82% 1018.6 hPa 0 mm - 386 W/m² -
1788096929 28.33° C 83% 1018.7 hPa 0 mm - 392 W/m² -
1788096624 28.33° C 83% 1018.8 hPa 0 mm - 192 W/m² -
1788096320 28.33° C 84% 1018.9 hPa 0 mm - 314 W/m² -
1788096020 27.78° C 85% 1018.7 hPa 0 mm - 330 W/m² -
1788095719 27.78° C 86% 1018.9 hPa 0 mm - 190 W/m² -
1788095414 27.22° C 87% 1018.5 hPa 0 mm - 219 W/m² -
1788095109 26.67° C 88% 1018.8 hPa 0 mm - 270 W/m² -
1788094810 26.67° C 88% 1018.5 hPa 0 mm - 281 W/m² -
1788094504 26.67° C 89% 1019 hPa 0 mm - 265 W/m² -
1788094203 26.67° C 89% 1018.7 hPa 0 mm - 155 W/m² -
1788093897 26.11° C 90% 1018.4 hPa 0 mm - 161 W/m² -
1788093593 25.56° C 91% 1018.3 hPa 0 mm - 152 W/m² -
1788093297 25.56° C 92% 1018.5 hPa 0 mm - 131 W/m² -

* Rain latest hour (hover to see other rain measurements)
** Current wind speed in m/s (hover to see current wind gust speed)